Regional Weather Roundup
Issued by NWS

Home | Current Version | Previous Version | Graphics & Text | Print | Product List | Glossary On
Versions: 1 2 3 4 5 6 7 8 9 10 11 12 13 14 15 16 17 18 19 20 21 22 23 24 25 26 27
000
ASUS45 KSLC 262110
RWRUT

UTAH REGIONAL WEATHER ROUNDUP
NATIONAL WEATHER SERVICE SALT LAKE CITY UT
300 PM MDT TUE JUL 26 2016

UTZ001>011-023>025-262200-

NORTHERN UTAH

CITY           SKY/WX    TMP DP  RH WIND       PRES   REMARKS
BRIGHAM CITY     N/A     96  32  10 SW8       30.03F HX  90
HILL AFB       MOSUNNY   95  40  15 W14       30.07F HX  90
LOGAN          SUNNY     95  39  14 SW7       30.03F HX  91
OGDEN          SUNNY     96  39  13 W6        30.04F HX  91
PROVO AIRPORT  MOSUNNY   99  46  16 SE7       30.03F HX  95
SALT LAKE CITY MOSUNNY  103  41  12 N7G20     30.00F HX  98
VERNAL         CLOUDY    85  35  16 NW30G51   30.16R HAZE
WENDOVER       SUNNY     97  34  11 SE10      30.03F HX  91
HEBER CITY     MOSUNNY   97  34  11 S5        30.11F HX  91

$$

UTZ012>022-026-027-262200-

SOUTHERN/CENTRAL UTAH

CITY           SKY/WX    TMP DP  RH WIND       PRES   REMARKS
BLANDING       MOSUNNY   89  44  21 E3        30.25F
BRYCE CANYON   PTSUNNY   71  52  50 S7        30.37R
CEDAR CITY     MOSUNNY   92  40  16 VRB6      30.14F
DELTA          SUNNY     97  30   9 W10       30.06F HX  91
MILFORD        MOSUNNY   89  37  16 S23G33    30.09S
MOAB/CYNLANDS  SUNNY    101  41  12 S14       30.02F HX  96
PRICE          MOSUNNY   94  35  12 SE5       30.14F
ST GEORGE      PTCLDY   102  46  15 CALM      29.94F HX  98

$$

REGIONAL REPORTS     COLORADO/ARIZONA

CITY           SKY/WX    TMP DP  RH WIND       PRES   REMARKS
CRAIG, CO      RAIN      82  34  17 VRB5      30.21R
GRAND JUNCTION CLOUDY    97  39  13 CALM      30.08F HX  92
RIFLE          SUNNY     92  32  12 NW25G33   30.16S
MONTROSE       CLOUDY    90  41  18 CALM      30.20F
CORTEZ         SUNNY     90  45  21 NW6       30.18F
PAGE, AZ       SUNNY     99  41  13 NW6       30.04F HX  94
GRAND CANYON   MOSUNNY   85  48  27 S8        30.28F
KINGMAN        SUNNY    102  44  14 MISG      30.00F HX  98
FLAGSTAFF      PTSUNNY   74  52  46 S12       30.32S THUNDER

$$

REGIONAL REPORTS    NEVADA/IDAHO/WYOMING

CITY           SKY/WX    TMP DP  RH WIND       PRES   REMARKS
LAS VEGAS, NV  MOSUNNY  109  41  10 VRB6      29.83F HX 103
ELY            SUNNY     94  16   6 SW8G16    30.20F
ELKO           SUNNY     97   8   4 W15G30    30.12F HX  90
POCATELLO, ID  SUNNY     96  35  11 NW9       30.05F HX  91
BURLEY         SUNNY     91  45  20 W8        30.02F
EVANSTON, WY   CLOUDY    86  32  14 NW16      30.25F
ROCK SPRINGS   SUNNY     88  23   9 S8        30.20F
KEMMERER         N/A    N/A N/A N/A S13G21    30.26F

$$




USA.gov is the U.S. government's official web portal to all federal, state and local government web resources and services.